Powrót do katalogu

GALEX

AktywnyNaukaLEO
NORAD 27783·PAYLOAD·🇺🇸 United States

Wystrzelony Apr 28, 2003 z Cape Canaveral Space Force Station

Loading…

Następne Przeloty (najbliższe 24 godziny)

TLE

ŚwieżeSource: Space-Track

Epoka: Sep 13, 2026, 19:35 UTC

1 27783U 03017A   26256.81608398  .00000522  00000-0  73444-4 0  9997
2 27783  28.9978 310.9635 0003192 262.1240  97.8986 14.66136073250237

Śledź GALEX w czasie rzeczywistym z AllMySat

Download on the App Store